星链-2722 (STARLINK-2722 )

导读 | 星芒AI

STARLINK-2722 是 SpaceX 星链计划中的一颗低轨通信卫星,属于第27批发射的星链卫星群。该卫星旨在为全球用户提供高速互联网服务,尤其关注网络覆盖不足的地区。它运行在约550公里高的近地轨道,配备先进通信设备,支持星间激光链路,提升数据传输效率。作为星链系统的一部分,STARLINK-2722 有助于构建一个全球性的宽带网络,推动远程教育、医疗和经济发展。

基本信息
目录编号:
48472
目录名称:
STARLINK-2722
国际标识:
2021-040AW
轨道中心:
EARTH
卫星名称:
星链-2722
卫星全名:
星链-2722 (STARLINK-2722 )
卫星状态:
在轨 (已飞行1635 天)
发射日期:
2021-05-09 UTC
国别 :
美国 (US)
星等 :
--
轨道信息
数据来源 国际轨道数据
星历时间: 2025-10-30T09:18:31+0800
14小时前
查看轨道信息
半长轴: 6925.368km
偏心率: 0.0001806
轨道倾角: 53.048°
近地点辐角 86.605°
升交点赤经 58.065°
平近点角 273.515°
近地点: 545.982km
远地点: 548.484km
周期: 95.593分钟
每日圈数: 15.063937
详细信息
固有亮度:
5
最大亮度:
2.5
卫星平台:
Starlink V1.0
覆盖范围:
全球
运营商:
太空探索技术公司
运营商所在国:
美国
制造商(研发单位):
太空探索技术公司
制造商所在国:
美国
使用方式:
暂无
卫星简介
星链(Starlink)计划是由太空探索技术公司(SpaceX)提出的一个巨型低轨卫星互联网星座项目,计划在2019年至2024年间在太空搭建由约1.2万颗卫星组成的“星链”网络,其中1584颗将部署在地球上空550千米处的近地轨道,并从2020年开始工作。该卫星仍在工作。
2D轨道图
3D轨道图
轨道高度分析图
轨道倾角分析图
轨道综合分析图
查看轨道综合分析图